[[{"header":{"parameterUnit":"m.s-1","parameterCategory":1,"la1":30.2991,"la2":30.254,"lo1":-89.0895,"lo2":-89.0444,"dy":0.0017,"dx":0.0017,"nx":28,"ny":28,"refTime":"2024-05-23T03:00:00:Z","depth":0,"parameterNumber":2,"parameterNumberName":"U-component_of_WINDS"},"data":[0,0,0,0,0,0,0,0,0,0,0,0,0,0,0,0,0,0,0,0,0,0,0,0,0,0,0,0,0,0,0,0,0,0,0,0,0,0,0,0,0,0,0,0,0,0,0,0,0,0,0,0,0,0,0,0,0,0,-2.0068,-2.0069,0,-2.0115,-2.0116,-2.0116,-2.01,-2.0099,-2.0098,-2.0097,-2.0146,-2.0148,-2.015,0,0,0,0,0,0,0,0,0,0,0,0,0,-1.9968,-1.997,-2.0068,-2.0069,-2.007,-2.0115,-2.0116,-2.0116,-2.01,-2.0099,-2.0098,-2.0096,-2.0145,-2.0148,-2.015,0,0,0,0,0,0,0,0,0,0,0,0,0,-2.0013,-1.997,-2.0068,-2.0067,-2.0067,-2.0115,-2.0116,-2.0116,-2.01,-2.0099,-2.0097,-2.0096,-2.0144,-2.0147,-2.0151,-2.0203,0,0,-2.0161,-2.0163,0,0,0,0,0,0,0,0,-2.001,-2.0016,-2.0067,-2.0067,-2.0068,-2.01,-2.0098,-2.0145,-2.0101,-2.0088,-2.0097,-2.0095,-2.0132,-2.0136,-2.0148,-2.0205,-2.0207,-2.0161,-2.0164,-2.0165,-2.0166,0,0,0,0,0,0,0,-2.0007,-2.0014,-2.0087,-2.0067,-2.0068,-2.0065,-2.0069,-2.0107,-2.0118,-2.0089,-2.0088,-2.0093,-2.0132,-2.0145,-2.0149,-2.0208,-2.0161,-2.0164,-2.0167,-2.0168,-2.031,-2.0312,0,0,0,0,0,0,-2.0003,-2.0012,-2.0085,-2.0088,-2.0034,-2.0068,-2.0073,-2.0091,-2.0118,-2.012,-2.0095,-2.0092,-2.014,-2.0145,-2.0151,-2.0213,-2.0165,-2.0168,-2.017,-2.0308,-2.031,-2.0312,0,0,0,0,0,0,-2.0001,-2.001,-2.0084,-2.005,-2.0059,-2.0071,-2.0092,-2.0093,-2.0106,-2.0122,-2.0124,-2.0106,-2.0139,-2.0146,-2.019,-2.0215,-2.017,-2.0173,-2.0306,-2.0309,-2.0311,-2.0339,0,0,0,0,0,0,-1.9998,-2.0009,-2.0029,-2.005,-2.0061,-2.0121,-2.0093,-2.0095,-2.0112,-2.0109,-2.0133,-2.0136,-2.0138,-2.0185,-2.0193,-2.0219,-2.0175,-2.0304,-2.0308,-2.0311,-2.0336,-2.0342,-2.0347,0,0,0,0,0,-1.9995,-2.0035,-2.003,-2.0039,-2.0085,-2.0123,-2.0129,-2.0131,-2.0114,-2.0134,-2.0144,-2.0135,-2.0211,-2.019,-2.0199,-2.0226,-2.0303,-2.0307,-2.031,-2.0333,-2.0341,-2.0347,0,0,0,0,0,0,-2.0016,-2.0038,-2.0032,-2.008,-2.01,-2.012,-2.0145,-2.0139,-2.0164,-2.016,-2.0162,-2.0168,-2.0213,-2.0224,-2.02,-2.0278,-2.0254,-2.026,-2.0268,-2.0276,-2.0282,-2.0278,-2.0178,0,0,0,0,0,-2.0026,-2.0055,-2.0072,-2.0113,-2.0123,-2.0132,-2.0149,-2.0149,-2.0169,-2.0177,-2.0191,-2.0211,-2.024,-2.0259,-2.0286,-2.0338,-2.0343,-2.0361,-2.0367,-2.0371,-2.0376,-2.0404,-2.0413,-2.0325,-2.0325,-2.0325,0,0,-2.0048,-2.0063,-2.0081,-2.0117,-2.0132,-2.0162,-2.0139,-2.0171,-2.0193,-2.0182,-2.0224,-2.0235,-2.0258,-2.0306,-2.0328,-2.0317,-2.0402,-2.0376,-2.038,-2.0382,-2.0409,-2.0418,-2.0425,-2.0328,-2.0327,-2.0327,0,0,-2.0102,-2.0116,-2.0151,-2.0167,-2.019,-2.0196,-2.0205,-2.0226,-2.0233,-2.0275,-2.0267,-2.0294,-2.0344,-2.036,-2.0375,-2.0437,-2.0429,-2.0446,-2.0476,-2.0504,-2.0511,-2.0517,-2.0538,-2.0546,-2.0451,-2.0451,-2.0451,0,-2.0125,-2.0169,-2.0171,-2.0203,-2.022,-2.0211,-2.0247,-2.0263,-2.0294,-2.0306,-2.0293,-2.0355,-2.037,-2.0422,-2.0437,-2.0449,-2.0459,-2.0443,-2.0509,-2.0516,-2.0521,-2.0542,-2.055,-2.0453,-2.0453,-2.0453,-2.0452,0,-2.0197,-2.0228,-2.0253,-2.0283,-2.0303,-2.0337,-2.0345,-2.0365,-2.0363,-2.0371,-2.0414,-2.0433,-2.0463,-2.0476,-2.0475,-2.0528,-2.052,-2.0509,-2.0485,-2.0531,-2.0551,-2.0559,-2.0456,-2.0455,-2.0454,-2.0454,0,0,-2.0264,-2.0295,-2.0304,-2.0318,-2.0343,-2.0367,-2.0402,-2.0431,-2.0448,-2.047,-2.0499,-2.0542,-2.0531,-2.0549,-2.055,-2.0574,-2.0622,-2.056,-2.056,-2.057,-2.0681,-2.0688,-2.0698,-2.0617,-2.0619,-2.062,-2.0678,0,-2.032,-2.0379,-2.0382,-2.0436,-2.0465,-2.0458,-2.0488,-2.0507,-2.0516,-2.0542,-2.0551,-2.0581,-2.0565,-2.0576,-2.06,-2.0611,-2.0644,-2.0607,-2.0644,-2.0646,-2.0638,-2.0708,-2.0716,-2.077,-2.0686,-2.0687,-2.0688,0,-2.0392,-2.0416,-2.0473,-2.0494,-2.0506,-2.0533,-2.0561,-2.0586,-2.0608,-2.0612,-2.0632,-2.063,-2.0666,-2.0643,-2.0692,-2.0667,-2.0683,-2.0691,-2.0694,-2.0696,-2.0669,-2.0712,-2.0788,-2.0795,-2.07,-2.0699,-2.0699,0,-2.0435,-2.0481,-2.0521,-2.0533,-2.0559,-2.0578,-2.059,-2.0611,-2.0629,-2.0653,-2.0665,-2.0694,-2.071,-2.0732,-2.0739,-2.0721,-2.0789,-2.0765,-2.0794,-2.0793,-2.0807,-2.0806,-2.0886,-2.0819,-2.0819,-2.0819,-2.0819,0,-2.0496,-2.0531,-2.0541,-2.0565,-2.0604,-2.0608,-2.0647,-2.0658,-2.0677,-2.0704,-2.07,-2.0726,-2.0733,-2.076,-2.0766,-2.0806,-2.0813,-2.0818,-2.0819,-2.0818,-2.0817,-2.0828,-2.0824,-2.0821,-2.082,-2.082,-2.082,0,-2.0549,-2.0557,-2.06,-2.0622,-2.0628,-2.0656,-2.0675,-2.0699,-2.0707,-2.0742,-2.075,-2.0764,-2.0796,-2.0804,-2.0843,-2.0847,-2.0894,-2.0892,-2.0886,-2.0886,-2.0913,-2.091,-2.1002,-2.1014,-2.094,-2.0941,-2.0941,0,-2.0587,-2.0614,-2.0638,-2.0655,-2.0668,-2.0697,-2.0715,-2.072,-2.0739,-2.0766,-2.0787,-2.0819,-2.0844,-2.0896,-2.0909,-2.0939,-2.0937,-2.0967,-2.0941,-2.094,-2.0937,-2.0935,-2.0937,-2.0972,-2.0972,-2.0973,-2.0974,0,-2.0653,-2.0656,-2.0682,-2.0709,-2.0731,-2.0753,-2.0774,-2.0789,-2.0798,-2.0819,-2.0852,-2.0871,-2.0911,-2.0942,-2.0972,-2.0985,-2.0981,-2.0982,-2.099,-2.0988,-2.0984,-2.0986,-2.0899,-2.0979,-2.0979,-2.0978,-2.0978,-2.0978,-2.07,-2.0723,-2.0744,-2.0773,-2.0789,-2.0809,-2.0833,-2.0844,-2.0871,-2.0903,-2.0905,-2.094,-2.0962,-2.1002,-2.1017,-2.1045,-2.1036,-2.1048,-2.1051,-2.1053,-2.1055,-2.098,-2.1051,-2.1051,-2.105,-2.105,-2.105,0,-2.0766,-2.0779,-2.0805,-2.0835,-2.0858,-2.0851,-2.0875,-2.0895,-2.0925,-2.0946,-2.0971,-2.1009,-2.1039,-2.1056,-2.1086,-2.1106,-2.1104,-2.1113,-2.1112,-2.1115,-2.1062,-2.1051,-2.1114,-2.1114,-2.1114,-2.1114,-2.1114,-2.1114,-2.0802,-2.0841,-2.0847,-2.0894,-2.0907,-2.0941,-2.0955,-2.0974,-2.099,-2.1032,-2.1057,-2.1067,-2.1087,-2.1119,-2.1147,-2.1151,-2.1162,-2.1172,-2.1175,-2.1125,-2.1118,-2.1112,-2.1102,-2.1175,-2.1175,-2.1226,-2.1226,-2.1226]},{"header":{"parameterUnit":"m.s-1","parameterCategory":1,"la1":30.2991,"la2":30.254,"lo1":-89.0895,"lo2":-89.0444,"dy":0.0017,"dx":0.0017,"nx":28,"ny":28,"refTime":"2024-05-23T03:00:00:Z","depth":0,"parameterNumber":3,"parameterNumberName":"V-component_of_WINDS"},"data":[0,0,0,0,0,0,0,0,0,0,0,0,0,0,0,0,0,0,0,0,0,0,0,0,0,0,0,0,0,0,0,0,0,0,0,0,0,0,0,0,0,0,0,0,0,0,0,0,0,0,0,0,0,0,0,0,0,0,4.9611,4.961,0,4.9597,4.9597,4.9597,4.9576,4.9576,4.9576,4.9575,4.9558,4.9558,4.9558,0,0,0,0,0,0,0,0,0,0,0,0,0,4.9618,4.9618,4.9611,4.961,4.961,4.9597,4.9597,4.9596,4.9577,4.9576,4.9576,4.9575,4.9559,4.9558,4.9558,0,0,0,0,0,0,0,0,0,0,0,0,0,4.961,4.9618,4.9611,4.9599,4.9598,4.9597,4.9597,4.9596,4.9577,4.9576,4.9576,4.9575,4.9559,4.9558,4.9558,4.9567,0,0,4.9558,4.9557,0,0,0,0,0,0,0,0,4.9611,4.961,4.9601,4.96,4.9598,4.9588,4.9593,4.9587,4.9577,4.9584,4.9575,4.9575,4.9568,4.9567,4.9566,4.9566,4.9566,4.9558,4.9557,4.9557,4.9557,0,0,0,0,0,0,0,4.9611,4.9611,4.9605,4.9601,4.9599,4.9594,4.9592,4.9592,4.9579,4.9584,4.9582,4.9581,4.9568,4.9566,4.9565,4.9565,4.9558,4.9557,4.9557,4.9557,4.9574,4.9575,0,0,0,0,0,0,4.9614,4.9611,4.9605,4.9605,4.9604,4.9594,4.9592,4.9592,4.9579,4.9577,4.9582,4.958,4.9567,4.9566,4.9565,4.9575,4.9557,4.9557,4.9557,4.9573,4.9574,4.9575,0,0,0,0,0,0,4.9614,4.9614,4.9606,4.9608,4.9606,4.9594,4.9594,4.9592,4.959,4.9578,4.9575,4.9582,4.9566,4.9565,4.9567,4.9575,4.9557,4.9557,4.9573,4.9574,4.9574,4.9596,0,0,0,0,0,0,4.9614,4.9614,4.9617,4.9608,4.9606,4.9609,4.9594,4.9592,4.959,4.9588,4.9578,4.9576,4.9566,4.9568,4.9567,4.9574,4.9557,4.9572,4.9573,4.9574,4.9595,4.9598,4.96,0,0,0,0,0,4.9615,4.9623,4.9618,4.9617,4.9611,4.961,4.9609,4.9598,4.9591,4.9594,4.9587,4.9576,4.9574,4.9568,4.9567,4.9574,4.9572,4.9573,4.9574,4.9594,4.9597,4.96,0,0,0,0,0,0,4.9632,4.9622,4.9615,4.9621,4.9617,4.9606,4.961,4.9602,4.9599,4.9597,4.9583,4.9581,4.9585,4.958,4.9574,4.9583,4.9571,4.9572,4.9586,4.959,4.9592,4.9594,4.9557,0,0,0,0,0,4.9637,4.9638,4.9628,4.9634,4.9633,4.9622,4.9621,4.9614,4.9608,4.9606,4.9598,4.9593,4.9591,4.959,4.9587,4.9594,4.9592,4.9599,4.9601,4.9604,4.9605,4.9609,4.9612,4.9579,4.9579,4.9579,0,0,4.9646,4.9641,4.9642,4.9638,4.9633,4.9635,4.962,4.9622,4.9623,4.9606,4.9608,4.9602,4.9595,4.96,4.9602,4.9596,4.9614,4.9605,4.9607,4.9607,4.9611,4.9614,4.9617,4.958,4.958,4.958,0,0,4.9664,4.966,4.9665,4.9662,4.9656,4.9649,4.9651,4.9642,4.9638,4.9641,4.9629,4.9629,4.9626,4.9622,4.9619,4.9638,4.9628,4.9637,4.9651,4.9656,4.9658,4.9661,4.9668,4.9671,4.9638,4.9638,4.9638,0,4.9676,4.9678,4.9668,4.9671,4.967,4.9657,4.9662,4.9659,4.9652,4.9651,4.9645,4.9642,4.9636,4.9641,4.9645,4.9643,4.9645,4.9638,4.9659,4.9661,4.9663,4.967,4.9673,4.964,4.9639,4.9639,4.9639,0,4.9694,4.9696,4.97,4.9696,4.9696,4.9699,4.969,4.969,4.9683,4.9677,4.968,4.9673,4.967,4.967,4.9662,4.9674,4.9671,4.9662,4.965,4.9668,4.9674,4.9677,4.9641,4.9641,4.9641,4.964,0,0,4.9721,4.9713,4.9715,4.9714,4.9708,4.9708,4.9712,4.971,4.9711,4.9707,4.971,4.9709,4.9701,4.9699,4.969,4.9694,4.9711,4.9685,4.9685,4.9691,4.9724,4.9732,4.9735,4.9705,4.9705,4.9705,4.9725,0,4.9738,4.9745,4.9737,4.9745,4.9747,4.9735,4.9739,4.9735,4.973,4.973,4.9724,4.9724,4.9713,4.9712,4.9715,4.9708,4.9718,4.9707,4.9707,4.9707,4.971,4.9738,4.9745,4.9764,4.9728,4.9728,4.9728,0,4.9759,4.9758,4.9767,4.9762,4.9762,4.9766,4.9764,4.9765,4.9761,4.9756,4.9755,4.9746,4.9749,4.9737,4.9742,4.9735,4.9734,4.9731,4.9732,4.9732,4.9719,4.9739,4.977,4.9773,4.9732,4.9732,4.9731,0,4.9779,4.978,4.9786,4.9785,4.9779,4.9782,4.9779,4.9775,4.9775,4.9773,4.9773,4.9771,4.977,4.9769,4.976,4.9752,4.9766,4.9753,4.9763,4.9763,4.9766,4.9766,4.9798,4.9765,4.9765,4.9765,4.9765,0,4.9799,4.9805,4.9796,4.9799,4.9806,4.9797,4.9804,4.9799,4.9796,4.9799,4.9788,4.979,4.9778,4.9779,4.9772,4.9777,4.9777,4.9774,4.9772,4.9775,4.9776,4.9775,4.9774,4.9766,4.9766,4.9766,4.9765,0,4.9823,4.9817,4.9823,4.9817,4.9816,4.9821,4.9816,4.9819,4.9814,4.9817,4.9818,4.9809,4.981,4.9801,4.98,4.9795,4.9804,4.98,4.9806,4.9805,4.9815,4.9815,4.9848,4.9853,4.9816,4.9817,4.9817,0,4.9837,4.9841,4.9837,4.9839,4.9837,4.984,4.984,4.9831,4.9832,4.9829,4.9833,4.9833,4.9833,4.9835,4.9829,4.9828,4.9824,4.9836,4.9824,4.9827,4.9825,4.9826,4.9826,4.9838,4.9839,4.9839,4.9839,0,4.9862,4.9859,4.986,4.9861,4.9863,4.9863,4.9862,4.9864,4.9854,4.9856,4.9858,4.9858,4.9858,4.9859,4.9857,4.9854,4.9845,4.9843,4.9846,4.9849,4.9854,4.9853,4.9814,4.9843,4.9842,4.9842,4.9842,4.9842,4.9881,4.9886,4.9884,4.9886,4.9885,4.9885,4.9889,4.9885,4.9886,4.9887,4.9881,4.9884,4.9881,4.9879,4.9876,4.9879,4.9873,4.9876,4.9877,4.9878,4.9881,4.9853,4.9878,4.9878,4.9878,4.9878,4.9878,0,4.9906,4.9905,4.9908,4.9908,4.9911,4.9903,4.9903,4.9905,4.9908,4.9907,4.9908,4.991,4.9912,4.9906,4.9906,4.9909,4.9906,4.991,4.991,4.991,4.9885,4.9884,4.9913,4.9913,4.9913,4.9913,4.9913,4.9913,4.992,4.9928,4.9925,4.9932,4.993,4.9935,4.9935,4.9935,4.9934,4.9938,4.994,4.9937,4.9933,4.9934,4.9935,4.9933,4.9934,4.994,4.9937,4.9914,4.9911,4.9908,4.9906,4.994,4.994,4.9962,4.9962,4.9962]}]]